Погода в Полтаве

Погода в Полтаве : погода сейчас, прогноз погоды и архив. Всё, что Вы хотите узнать о погоде в Полтаве!

Поиск расширенной информации на нашем сайте:

Другие новости

Новости СМИ2

Главная страница сайта

Новости сайта

03.07.2017

Напоминаем, что на нашем специализированном сайте Метеоцентр.Азия вы можете получить высокодетализированные автоматические прогнозы погоды по пунктам России, СНГ и мира в авиационном формате (включающие направление и скорость ветра, видимость, явления погоды, количество и форму облачности, нижнюю и верхнюю границу облачности).


Погода в Полтаве - сегодня

Время (UTC), дата Ветер
(°,м/с) 
Видим.   Явления Облачность Т
(°С)
Тd
(°С)
f(%) Тe
(°С)
Pmin
(гПа)
dP
(гПа)
Po
(мм)
O2
(г/м3)
Тmin Tmax R s Состояние
почвы
15 12.10.18 090 (В) 10 км    ясно 
+15 -0.7 34 +16  1033.9  -0.6  761  291           
18 12.10.18 050 (СВ) 10 км    ясно 
+9.5 +1.2 56 +11  1034.7  0.5  761  296           
21 12.10.18 090 (В) 10 км    ясно 
+8 +0.7 60 +9  1035.2  0.3  761  298           
00 13.10.18 тихо ()   10 км    ясно 
+5.6 +0.1 68 +6  1035.5  0.2  762  301           
03 13.10.18 тихо ()   10 км    ясно 
+4.2 +0.8 79 +4  1035.6  762  302           
06 13.10.18 тихо ()   10 км    ясно 
+7.7 +1.8 66 +8  1035.5  0.1  762  298  +3.2         
09 13.10.18 070 (В) 10 км    ясно 
+14.7 +0.5 38 +15  1034.9  -0.1  762  291           
12 13.10.18 310 (СЗ) 10 км    ясно 
+17.6 +2 35 +19  1033.4  -1.3  761  288           
15 13.10.18 тихо ()   10 км    ясно 
+15.6 +3.8 45 +16  1032.5  -1  760  289           
18 13.10.18 320 (СЗ) 10 км    ясно 
+10.4 +3.2 61 +12  1032.1  -0.7  759  294    +18.1       
21 13.10.18 340 (С) 10 км    4/0 верхняя 
[Ci fib]
+11.2 +1.4 51 +12  1031.6  -0.5  759  294           
00 14.10.18 340 (С) 10 км    ясно 
+9.3 +1.5 58 +9  1032  0.3  759  296           
03 14.10.18 340 (С) 10 км    ясно 
+8.2 +1.6 63 +9  1031.7  -0.4  759  297           
06 14.10.18 280 (З) 10 км    4/0 верхняя 
[Cs]
+10.1 +2.3 58 +11  1031.4  -0.1  759  295  +7.2         
09 14.10.18 350 (С) 10 км    8/0 верхняя 
[Cs]
+17.2 +1 33 +18  1030.6  -0.3  759  287           
12 14.10.18 340 (С) 10 км    4/0 верхняя 
[Ci fib]
+19.6 -0.7 25 +20  1029.3  -1.2  758  285           
15 14.10.18 340 (С) 10 км    8/0 верхняя 
[Ci fib]
+17.5 +1.2 33 +18  1028.4  -1  757  286           
18 14.10.18 330 (СЗ) 10 км    6/0 верхняя 
[Ci fib]
+13.2 +1.5 45 +14  1028.8  0.1  757  291    +20.1       
21 14.10.18 350 (С) 10 км    ясно 
+11.6 +2.9 55 +13  1029.1  0.2  757  292           
00 15.10.18 тихо ()   10 км    ясно 
+11.3 +5.9 69 +11  1029.4  0.3  757  292           
03 15.10.18 тихо ()   10 км    ясно 
+10 +6.6 79 +10  1029.3  -0.2  757  293           
06 15.10.18 тихо ()   10 км    3/0 верхняя 
[Ci fib]
+12.5 +8.2 75 +13  1029.7  0.6  758  291  +7.9         
09 15.10.18 070 (В) 10 км    1/0 верхняя 
[Ci fib]
+18.2 +9.6 57 +20  1029.2  -0.1  758  285           
12 15.10.18 040 (СВ) 10 км    ясно 
+21.7 +8.4 42 +22  1028.1  -0.9  757  281           
15 15.10.18 010 (С) 10 км    3/0 верхняя 
[Ci fib]
+20.1 +9.8 51 +21  1028  -0.2  757  282           
Время (UTC), дата Ветер
(°,м/с) 
Видим.   Явления Облачность Т
(°С)
Тd
(°С)
f(%) Тe
(°С)
Pmin
(гПа)
dP
(гПа)
Po
(мм)
O2
(г/м3)
Тmin Tmax R s Состояние
почвы

Для получения пояснительной информации подведите курсор к названию столбца.

ПОГОДА в Полтаве - архив

Всё, что Вы хотите узнать о погоде в Полтаве - удобно и подробно!

Выберите нужную дату (начиная с 1 января 2015* года) и нажмите кнопку "Найти".
Будут отображены архивные сводки погоды по пункту Полтава, начиная с указанной даты.


Отображать данные в формате CSV (для использования в таблицах Excel)


Внимание! Наш архив погоды предназначен исключительно для личного некоммерческого использования в познавательных целях. Если Вам необходимы официальные справки о состоянии погоды (для производственных, юридических, коммерческих и т.п. целей), обращайтесь в органы Росгидромета.

*Примечание: данная дата относится к архиву по метеостанциям СССР (Россия, СНГ, Балтия).
Архив по метеостанциям Зарубежной Европы и Азии (кроме Китая) хранится 10 дней, по другим регионам земного шара (Китай, Африка, Америка, Австралия, Океания) - 1 день.

Полтава - район местоположения метеостанции


Название, широта, долгота, высота метеостанции:
Полтава 49.6°ш. 34.6°д. 160 м над ур. моря [Украина]

Дополнительная информация

В oтличие oт бoльшинства пoгoдных сайтoв мы публикуем пoдрoбную метеoинфoрмацию в детальнoм прoфессиoнальнoм фoрмате.

Характеристики температуры и влажнoсти вoздуха измеряются на высoте 2 м в тени вдали oт зданий и деревьев.
Скoрoсть ветра измеряется на высoте 10 м (на урoвне рoста челoвека скoрoсть ветра ниже в 1.5-2 раза). Если метеoстанция нахoдится в гoрoде или в лесу, тo скoрoсть ветра занижена на 2-4 м/с пo сравнению с oткрытым местoм. Скoрoсть ветра над акватoриями крупных рек и oзёр, а также на вершинах хoлмoв на 2-5 м/с выше, чем в oбычных услoвиях.
Атмoсфернoе давление в разных тoчках местнoсти мoжет значительнo oтличаться oт давления на метеoстанции, в зависимoсти oт услoвий рельефа (при пoдъёме на 10 м давление пoнижается примернo на 1 мм рт.ст.).